Regional Weather Roundup
Issued by NWS

Home | Current Version | Previous Version | Graphics & Text | Print | Product List | Glossary On
Versions: 1 2 3 4 5 6 7 8 9 10 11 12 13 14 15 16 17 18 19 20 21 22 23 24 25 26 27 28 29 30 31 32 33 34 35 36 37 38 39 40 41 42 43 44 45 46 47 48 49 50
000
ASUS43 KDMX 270907
RWRIA

WEATHER ROUNDUP FOR IOWA
NATIONAL WEATHER SERVICE DES MOINES IA
400 AM CDT WED MAY 27 2015

NOTE: "FAIR" INDICATES FEW OR NO CLOUDS BELOW 12,000 FEET WITH NO
SIGNIFICANT WEATHER AND/OR OBSTRUCTIONS TO VISIBILITY.

* - THESE STATIONS ARE NOT NWS STATIONS...THUS NOT UNDER NWS
QUALITY CONTROL.  THEY ALSO DO NOT REPORT WEATHER SUCH
AS PRECIPITATION OR FOG.

IAZ001>003-012>014-020>022-031>034-043>046-271000-
   NORTHWEST IOWA

CITY           SKY/WX    TMP DP  RH WIND       PRES   REMARKS
CARROLL *      PTCLDY    55  55 100 W9        29.93R
CHEROKEE *     PTCLDY    54  54 100 S5        29.92S
DENISON *      CLEAR     54  54 100 SW5       29.93R
LE MARS *      CLEAR     52  52 100 S5        29.94R
ORANGE CITY *  CLEAR     54  52  94 CALM      29.93R
SHELDON *      CLEAR     54  54 100 CALM      29.91R
SIOUX CITY     CLEAR     51  49  92 S3        29.95R
SPENCER        MOCLDY    54  52  93 W7        29.92R FOG
STORM LAKE *   CLEAR     55  54  94 W8        29.94R
$$

IAZ055>058-069>071-079>083-090>094-271000-
   SOUTHWEST IOWA

CITY           SKY/WX    TMP DP  RH WIND       PRES   REMARKS
ATLANTIC *     CLEAR     54  54 100 SW8       29.97R
AUDUBON *      CLEAR     55  52  88 SW7       29.96R
COUNCIL BLFS * CLEAR     57  57 100 SW8       29.98R
CRESTON *      CLEAR     54  54 100 NW7       29.95R
HARLAN  *      CLEAR     54  54 100 CALM      30.00R
LAMONI         CLEAR     60  55  83 W9        29.95R
RED OAK *      CLEAR     55  55 100 SW3       29.97R
SHENANDOAH *   CLEAR     55  55 100 CALM      29.98R
$$

IAZ047>049-059>061-072>074-084-271000-
   CENTRAL IOWA

CITY           SKY/WX    TMP DP  RH WIND       PRES   REMARKS
AMES           MOCLDY    58  56  93 W6        29.90S
ANKENY *       PTCLDY    57  57 100 W6        29.91R
CHARITON *       N/A     59  57  94 W12       29.92R
DES MOINES     CLOUDY    60  56  86 W7        29.92R
GRINNELL*      MOCLDY    59  57  94 W5        29.91R
KNOXVILLE *    CLOUDY    59  55  88 W7        29.90R
MARSHALLTOWN   MOCLDY    59  57  93 W6        29.89R
PELLA *        CLOUDY    59  59 100 W6        29.91R
PERRY *          N/A     57  55  94 W9        29.93R
$$

IAZ004>006-015-016-023>025-035-036-271000-
   NORTH CENTRAL IOWA

CITY           SKY/WX    TMP DP  RH WIND       PRES   REMARKS
ALGONA *       CLEAR     55  55 100 W5        29.90S
CLARION *      MOCLDY    57 N/A N/A W7        29.90S
ESTHERVILLE    CLOUDY    54  53  97 W7        29.90R
FORT DODGE *   CLOUDY    55  54  94 CALM      29.92R
MASON CITY     CLOUDY    57  56  96 W8        29.90R
FOREST CITY *  CLEAR     54  54 100 W5        29.89S
IOWA FALLS *   MOCLDY    59  55  88 W6        29.90R
$$

IAZ007>011-017>019-026>030-037>042-050>054-066-271000-
   NORTHEAST IOWA

CITY           SKY/WX    TMP DP  RH WIND       PRES   REMARKS
CEDAR RAPIDS   CLOUDY    61  61 100 W8        29.88R
CHARLES CITY * CLOUDY    57  57 100 W7        29.88R
CLINTON *      CLOUDY    61  57  88 W9        29.89R
DECORAH *      CLOUDY    57  57 100 VRB5      29.85R
DUBUQUE        LGT RAIN  61  59  93 W8        29.86R FOG
MONTICELLO *   CLOUDY    63  63 100 SW7       29.86R
OELWEIN *      CLOUDY    59  57  94 NW12      29.87S
WATERLOO       CLOUDY    58  55  90 W7        29.87R
$$

IAZ064-065-067-068-078-271000-
   EAST CENTRAL IOWA

CITY           SKY/WX    TMP DP  RH WIND       PRES   REMARKS
DAVENPORT      CLEAR     61  58  90 SW10      29.89R
IOWA CITY      CLOUDY    62  60  93 W7        29.90R
MT. PLEASANT * MOCLDY    59  59 100 S6        29.92R
MUSCATINE *    MOCLDY    63  59  88 SW8       29.90R
QUAD CITIES    CLEAR     62  58  86 SW9       29.88R
$$

IAZ062-063-075>077-085>089-095>099-271000-
   SOUTHEAST IOWA

CITY           SKY/WX    TMP DP  RH WIND       PRES   REMARKS
BURLINGTON     CLOUDY    63  61  93 SW6       29.91R
FAIRFIELD *    CLEAR     59  55  88 SW7       29.91R
FORT MADISON * MOCLDY    63  61  94 SW6       29.93S
KEOKUK *       MOCLDY    63  61  94 W6        29.92R
OSKALOOSA *      N/A     57  55  94 SW7       29.91R
CENTERVILLE *  CLEAR     57  57 100 SW7       29.94R
OTTUMWA        PTCLDY    57  56  96 W5        29.90R
WASHINGTON *   CLEAR     59  59 100 SW7       29.92R
$$

ABBREVIATIONS USED IN REMARKS
   TC - TEMPERATURES IN CELSIUS
  WCI - WIND CHILL INDEX
   HX - HEAT INDEX
  VSB - VISIBILITY
$$



USA.gov is the U.S. government's official web portal to all federal, state and local government web resources and services.